Location: Bitschhoffen
(48.8585°N, 7.6201°E)
Time: 01:59:37
(UTC+00:00)

Daily predictions for brighter satellites

Satellite Brightness Start Highest point End
(mag) Time Altitude Azimuth Time Altitude Azimuth Time Altitude Azimuth
CENTAUR R/B 4.3 02:14:21 35° E 02:14:21 35° E 02:19:20 10° ESE
Cosmos 2263 Rocket 3.9 03:01:26 29° ENE 03:01:26 29° ENE 03:04:53 10° NE
SJ 16-02 4.1 03:08:47 16° ENE 03:08:47 16° ENE 03:10:36 10° NE
CZ-4C R/B 4.4 03:25:49 12° SSE 03:28:42 19° ESE 03:32:32 10° ENE
BREEZE-M DEB (TANK) 4.4 03:30:33 89° S 03:30:33 89° S 03:35:02 10° ESE
ATLAS 3B R/B 3.3 03:30:35 46° N 03:31:39 50° NE 03:38:33 10° ESE
Cosmos 1943 4.5 03:36:00 33° SSE 03:36:00 33° SSE 03:39:00 10° SSE
Lacrosse 4 Rocket 3.8 03:38:11 19° SE 03:38:11 19° SE 03:39:29 10° SE
Cosmos 923 Rocket 4.3 03:53:37 63° ENE 03:53:37 63° ENE 03:58:49 10° SE
ALOS 3.0 03:49:11 10° NNE 03:53:16 50° ENE 03:53:16 50° ENE
Cosmos 2227 Rocket 4.3 03:57:13 15° N 03:57:13 15° N 03:58:30 10° N
Cosmos 2344 4.4 03:53:01 33° NNW 03:58:01 70° NE 04:10:31 10° SE
NOSS 3-2 (C) 4.2 04:00:07 53° SW 04:00:07 53° SW 04:07:56 10° SSE
Cosmos 2227 4.3 04:01:36 67° NNE 04:01:36 67° NNE 04:06:29 10° NNE
USA 305 4.5 04:02:46 31° NE 04:02:46 31° NE 04:05:24 10° ENE
CENTAUR R/B 3.2 04:01:35 54° WSW 04:01:42 54° WSW 04:10:12 10° SSE
NOSS 3-4 (A) 3.5 04:00:50 56° S 04:02:01 72° SE 04:08:21 10° NE
NOSS 3-4 (C) 3.5 04:00:54 55° S 04:02:09 71° SE 04:08:28 10° NE
ARGOS Delta rocket 4.0 03:59:40 10° NNE 04:04:43 76° E 04:04:43 76° E
Meteor 1-31 Rocket 4.4 04:02:44 10° NNE 04:05:08 30° NE 04:05:08 30° NE
USA 306 4.2 04:10:52 34° NE 04:10:52 34° NE 04:13:51 10° ENE
Cosmos 158 Rocket 3.9 04:10:38 77° ESE 04:10:38 77° ESE 04:15:18 10° SSE
SL-4 R/B 3.2 04:15:02 37° NE 04:15:02 37° NE 04:17:28 10° ENE
Cosmos 1151 Rocket 4.3 04:17:01 32° SSE 04:17:01 32° SSE 04:19:21 10° S
Cosmos 1782 3.4 04:16:34 55° E 04:16:34 55° E 04:20:26 10° SSE
SKYMED 2 4.1 04:13:47 10° SSE 04:18:02 56° ENE 04:19:24 38° NNE
Cosmos 1844 Rocket 4.4 04:13:13 10° SSE 04:18:12 33° ESE 04:23:14 10° NE
Cosmos 1680 Rocket 3.5 04:20:02 48° NNW 04:21:33 81° ENE 04:26:53 10° SSE
ATLAS 2AS CENTAUR R/B 3.1 04:15:31 18° SSW 04:21:41 79° SE 04:29:33 10° NE
Cosmos 2297 Rocket 4.3 04:30:30 13° NNW 04:30:30 13° NNW 04:31:47 10° N
ATLAS 5 CENTAUR R/B 3.3 04:31:19 26° NNE 04:31:19 26° NNE 04:32:35 10° NNE
ATLAS CENTAUR R/B 1.5 04:32:07 61° NE 04:32:07 61° NE 04:35:58 10° SE
RESURS DK-1 3.6 04:28:20 10° S 04:32:14 41° ESE 04:36:09 10° NE
CRYOSAT 2 4.3 04:28:14 10° S 04:33:06 84° E 04:38:00 10° N
Lacrosse 5 1.9 04:32:03 45° SSW 04:33:35 74° SE 04:38:39 10° ENE
ADEOS 3.4 04:28:23 10° NNE 04:33:38 81° WNW 04:38:51 10° SSW
Cosmos 1328 Rocket 3.6 04:35:39 59° SW 04:35:39 59° SW 04:39:27 10° S
ERBS 4.3 04:38:12 21° NNE 04:38:12 21° NNE 04:39:41 10° NE
Cosmos 2112 Rocket 3.9 04:38:54 34° NNW 04:41:20 83° WSW 04:46:41 10° SSE
Gbstr 26 Del rocket 2.9 04:43:34 53° SSW 04:43:34 53° SSW 04:47:08 10° SE
Cosmos 2263 Rocket 2.4 04:43:11 44° WNW 04:43:35 45° NW 04:49:04 10° NNE
SJ 16-02 1.3 04:45:52 58° WNW 04:45:52 58° WNW 04:50:14 10° NNE
Meteor 1-26 Rocket 4.3 04:48:59 22° NNW 04:52:37 52° W 04:58:02 10° S
Cosmos 1898 Rocket 3.7 04:48:04 10° SSW 04:53:22 76° ESE 04:58:43 10° NNE
CZ-2C R/B 4.4 04:51:25 10° ESE 04:56:05 30° ENE 05:00:41 10° N
Cosmos 1766 Rocket 4.3 04:58:04 34° NW 04:58:04 34° NW 05:01:10 10° N
FALCON 9 DEB 3.2 04:56:35 56° SSW 04:56:59 63° SSE 05:00:11 10° ENE
FALCON 9 DEB 3.1 04:56:45 60° SSW 04:57:06 67° SSE 05:00:18 10° ENE
FENGYUN 3A 3.8 04:53:15 10° N 04:58:26 47° WNW 05:03:33 10° SW
Envisat 4.5 04:54:03 10° NNE 04:58:48 38° E 05:03:31 10° SSE
Cosmos 1743 Rocket 3.9 04:56:24 10° S 05:00:49 70° E 05:05:17 10° NNE
H-2A R/B 4.5 04:58:52 10° NE 05:02:15 28° E 05:05:34 10° SSE
Cosmos 1408 Rocket 3.5 04:58:25 10° SSW 05:02:50 62° WNW 05:07:16 10° N
Cosmos 2082 Rocket 4.2 04:59:02 10° N 05:03:18 21° NE 05:07:34 10° E
Cosmos 2181 Rocket 4.2 04:57:48 10° NNW 05:03:41 46° W 05:09:28 10° SSW
COSMO-SKYMED 1 2.7 05:01:54 10° S 05:06:06 48° W 05:07:59 29° NW
USA 307 3.6 05:05:08 32° NW 05:06:32 43° N 05:10:40 10° E
Cosmos 1709 Rocket 4.5 05:01:57 10° SW 05:07:48 38° WNW 05:13:43 10° N
Cosmos 1937 Rocket 3.6 05:05:18 10° SSW 05:10:26 77° ESE 05:15:40 10° NNE
USA 308 3.6 05:11:14 30° NW 05:12:54 44° N 05:17:04 10° E
Lacrosse 4 Rocket 3.2 05:14:32 17° SW 05:14:32 17° SW 05:16:25 10° SSW
Cosmos 1833 Rocket 4.1 05:08:54 10° NNW 05:14:01 34° NE 05:19:06 10° ESE
Meteor 2-3 Rocket 4.1 05:09:37 10° SW 05:15:03 42° WNW 05:20:33 10° N
CZ-4C R/B 2.0 05:11:12 10° SW 05:16:14 79° NW 05:22:24 10° NE
MOS 1 Rocket 3.4 05:11:37 10° SSE 05:16:28 89° ENE 05:21:39 10° NNW
Cosmos 2154 Rocket 4.2 05:10:30 10° S 05:16:41 76° E 05:22:59 10° NNE
CZ-4B R/B 3.1 05:12:41 10° N 05:17:10 63° WNW 05:21:31 10° SSW
Meteor 1-27 Rocket 4.3 05:12:28 10° N 05:18:11 63° ENE 05:24:00 10° SSE
Cosmos 1689 Rocket 3.3 05:16:29 10° SSW 05:18:12 26° SW 05:18:12 26° SW
FALCON 9 DEB 2.8 05:18:33 34° WSW 05:19:48 89° S 05:23:03 10° ENE
Cosmos 1805 Rocket 4.3 05:15:41 10° S 05:20:01 56° E 05:24:24 10° NNE
Meteor 1-10 Rocket 4.1 05:14:39 10° NNW 05:20:15 83° W 05:25:51 10° S
ATLAS 3B R/B 3.0 05:17:52 21° NW 05:22:27 51° WSW 05:29:20 10° SSE
COSMOS 2406 4.1 05:18:41 10° NNW 05:24:15 47° NE 05:29:48 10° SE
Aureole 2 Rocket 2.4 05:21:50 10° S 05:24:19 52° ESE 05:26:49 10° NNE
Cosmos 1862 3.2 05:23:31 10° SSW 05:27:34 73° W 05:31:39 10° N
YAOGAN 6 3.0 05:24:26 10° NNE 05:27:56 62° ESE 05:31:22 10° S
Genesis I 3.0 05:25:08 10° SW 05:28:56 71° NW 05:32:49 10° NE
deb Chang Zheng 4 4.3 05:26:59 10° N 05:30:49 31° WNW 05:34:38 10° SW
ALOS 3.4 05:27:16 10° NNW 05:30:52 22° WNW 05:31:45 21° WNW
Cosmos 858 Rocket 4.4 05:29:34 10° SSW 05:34:46 71° WNW 05:40:02 10° NNE
Cosmos 2327 Rocket 4.4 05:30:02 10° SSW 05:36:07 78° W 05:42:14 10° N
Cosmos 990 Rocket 4.2 05:31:10 10° SW 05:36:11 46° WNW 05:41:17 10° NNE
PSLV R/B 3.6 05:32:51 10° NNE 05:36:45 81° WNW 05:40:32 10° SSW
Cosmos 2074 Rocket 4.1 05:31:35 10° SSW 05:37:36 53° WNW 05:43:41 10° N
ASTRO F (AKARI) 4.2 05:35:41 10° N 05:38:43 54° WNW 05:41:47 10° SSW
Meteor 1-31 Rocket 4.1 05:37:45 10° NNW 05:40:29 19° WNW 05:40:29 19° WNW
USA 305 3.4 05:38:55 19° NW 05:41:50 52° NNE 05:46:03 10° E
BREEZE M DEB (TANK) 3.7 05:35:39 10° SW 05:42:23 42° SSE 05:45:01 10° E
Cosmos 405 Rocket 2.7 05:39:48 10° SSW 05:43:25 53° WNW 05:47:08 10° N
SL-24 DEB 4.2 05:38:52 10° S 05:43:38 79° W 05:48:27 10° N
Cosmos 1812 3.2 05:43:04 10° NNW 05:46:39 37° W 05:50:12 10° SSW
EO 1 Delta rocket 4.3 05:42:44 10° SSW 05:47:27 41° W 05:51:51 10° NNW
Cosmos 1295 Rocket 4.4 05:43:00 10° SSW 05:49:04 78° W 05:55:12 10° N
Cosmos 2228 Rocket 3.5 05:45:00 10° NNW 05:49:09 41° W 05:53:16 10° SSW
USA 306 3.3 05:47:01 16° WNW 05:50:18 55° NNE 05:54:32 10° E
NOSS 3-4 (A) 4.1 05:48:19 12° W 05:53:26 36° NNW 05:59:26 10° NE
NOSS 3-4 (C) 4.1 05:48:24 12° W 05:53:33 36° NNW 05:59:34 10° NE
SL-4 R/B 2.0 05:50:37 16° WNW 05:53:34 61° N 05:57:10 10° E
Cosmos 1633 Rocket 4.1 05:49:20 10° SSE 05:53:35 50° E 05:57:53 10° NNE
Cosmos 2184 Rocket 4.4 05:49:17 10° SW 05:55:15 42° WNW 06:01:17 10° N
USA-17 4.5 05:52:32 10° WSW 05:55:58 49° NW 05:58:58 10° NNE
USA 234 3.8 05:51:09 10° ENE 05:57:39 62° SE 06:04:06 10° SW
Cosmos 1356 3.6 05:55:40 10° S 05:59:03 74° E 06:02:29 10° NNE
FALCON 9 DEB 3.1 05:56:58 13° W 05:59:42 53° NNW 06:02:53 10° ENE
Cosmos 1844 Rocket 2.9 05:56:28 10° SW 06:01:56 48° NW 06:07:26 10° NNE
FALCON 9 DEB 3.4 05:59:52 14° WNW 06:02:48 59° NNE 06:06:14 10° E
Cosmos 1707 Rocket 3.5 06:01:57 10° NNW 06:06:16 69° W 06:10:33 10° S
EXPRESS MD2 4.3 06:03:36 11° WNW 06:07:22 67° SSW 06:15:31 10° ESE
MOS 1-B 4.3 06:02:08 10° NNE 06:07:57 73° WNW 06:13:44 10° SSW
COSMOS 2455 2.9 06:03:59 10° SW 06:10:02 84° NW 06:16:07 10° NE
RESURS DK-1 3.4 06:06:51 10° WSW 06:10:24 27° NW 06:13:58 10° N
ATLAS CENTAUR R/B 3.0 06:08:18 10° WNW 06:10:37 16° WSW 06:13:06 10° SSW
BREEZE-M (TANK) 4.4 06:05:23 10° SW 06:11:00 31° SSE 06:13:24 10° E
NOAA 6 4.1 06:06:04 10° N 06:11:06 59° WNW 06:16:07 10° SSW
ATLAS 2AS CENTAUR R/B 3.5 06:05:57 10° W 06:13:24 41° NNW 06:20:39 10° NE
ERBS 4.0 06:11:09 10° NW 06:13:39 19° N 06:16:10 10° NE
H-2A R/B 3.8 06:10:23 10° N 06:13:40 26° WNW 06:16:54 10° WSW
OPS 8737 4.5 06:10:47 10° NW 06:13:56 86° NE 06:18:00 10° SE
USA 290 4.1 06:12:18 10° N 06:15:12 28° ENE 06:18:04 10° ESE
Cosmos 1844 3.9 06:10:31 10° SW 06:15:51 46° NW 06:21:14 10° NNE
CZ-4B DEB 4.3 06:10:54 10° N 06:16:14 55° WNW 06:21:32 10° SW
Cosmos 1437 Rocket 3.6 06:13:31 10° NNW 06:16:46 27° W 06:20:00 10° SSW
Lacrosse 5 2.4 06:12:05 10° W 06:16:53 41° NNW 06:21:42 10° NE
Cosmos 372 Rocket 4.0 06:14:12 10° SW 06:19:12 57° WNW 06:24:15 10° NNE
Okean O Rocket 1.6 06:15:27 10° N 06:19:54 76° WNW 06:24:21 10° SSW
Cosmos 1242 Rocket 2.7 06:18:16 10° N 06:21:56 78° E 06:25:36 10° SSE
Geosat 4.0 06:17:05 10° SSE 06:22:06 78° WSW 06:27:10 10° NNW
PAYLOAD B 4.3 06:17:16 10° N 06:22:40 59° WNW 06:28:03 10° SSW
SMAP 3.1 06:18:58 10° N 06:23:35 63° WNW 06:28:11 10° SSW
USA 81 4.1 06:19:53 10° SSW 06:25:06 63° W 06:30:21 10° N
